RYR78MJ EGPH-EGHH

Flight info

Callsign RYR78MJ
Flight time 0h 52m
Altitude 32000
Route GOSAM P600 FENIK/N0391F190 L612 HON L8 BUGUP
Aircraft B738/M-SDE2E3FGHIRWXY/LB1

Departure

Time 2026-05-09 09:36
Airport Edinburgh Airport (EGPH)

Arrival

Time 2026-05-09 10:29
Airport Bournemouth Airport (EGHH)
Time Latitude Longitude Altitude Speed Heading
2026-05-09 09:21 55.94576 -3.36638 110 ft 0 kts 90°
2026-05-09 09:28 55.94576 -3.36660 110 ft 2 kts 89°
2026-05-09 09:29 55.94575 -3.36687 110 ft 2 kts 90°
2026-05-09 09:29 55.94575 -3.36713 110 ft 2 kts 89°
2026-05-09 09:29 55.94575 -3.36731 110 ft 0 kts 90°
2026-05-09 09:29 55.94574 -3.36742 110 ft 0 kts 36°
2026-05-09 09:30 55.94570 -3.36747 110 ft 0 kts 358°
2026-05-09 09:30 55.94582 -3.36743 109 ft 3 kts
2026-05-09 09:30 55.94592 -3.36744 109 ft 0 kts 359°
2026-05-09 09:32 55.94661 -3.36747 106 ft 11 kts 359°
2026-05-09 09:32 55.94750 -3.36761 104 ft 14 kts 335°
2026-05-09 09:32 55.94866 -3.36794 102 ft 19 kts 351°
2026-05-09 09:32 55.94904 -3.36958 101 ft 17 kts 238°
2026-05-09 09:33 55.94833 -3.37165 103 ft 22 kts 239°
2026-05-09 09:33 55.94740 -3.37438 101 ft 29 kts 238°
2026-05-09 09:33 55.94631 -3.37762 104 ft 31 kts 240°
2026-05-09 09:33 55.94520 -3.38088 109 ft 27 kts 238°
2026-05-09 09:34 55.94428 -3.38355 111 ft 22 kts 238°
2026-05-09 09:34 55.94344 -3.38602 116 ft 23 kts 239°
2026-05-09 09:34 55.94278 -3.38818 117 ft 13 kts 267°
2026-05-09 09:36 55.96276 -3.33933 934 ft 161 kts 46°
2026-05-09 09:36 55.97074 -3.32596 1480 ft 162 kts 43°
2026-05-09 09:36 55.97914 -3.31259 2104 ft 164 kts 41°
2026-05-09 09:37 55.98751 -3.29953 2715 ft 166 kts 36°
2026-05-09 09:37 55.99845 -3.29453 3273 ft 174 kts 352°
2026-05-09 09:37 56.00917 -3.30526 3923 ft 192 kts 314°
2026-05-09 09:37 56.01517 -3.32744 4656 ft 211 kts 291°
2026-05-09 09:38 56.01945 -3.35352 5322 ft 235 kts 289°
2026-05-09 09:38 56.02323 -3.38316 6006 ft 258 kts 278°
2026-05-09 09:38 56.02175 -3.41379 6644 ft 266 kts 261°
2026-05-09 09:38 56.01728 -3.44321 7297 ft 267 kts 258°
2026-05-09 09:39 56.01242 -3.47499 7958 ft 266 kts 259°
2026-05-09 09:39 56.00795 -3.50615 8590 ft 266 kts 259°
2026-05-09 09:39 56.00349 -3.53766 9224 ft 266 kts 258°
2026-05-09 09:39 55.99910 -3.56859 9842 ft 266 kts 258°
2026-05-09 09:40 55.99471 -3.59936 10450 ft 267 kts 257°
2026-05-09 09:40 55.99120 -3.62396 10930 ft 268 kts 257°
2026-05-09 09:40 55.98684 -3.65438 11522 ft 270 kts 256°
2026-05-09 09:40 55.98224 -3.68653 12154 ft 276 kts 255°
2026-05-09 09:41 55.97729 -3.72075 12903 ft 294 kts 255°
2026-05-09 09:41 55.97206 -3.75707 13709 ft 309 kts 255°
2026-05-09 09:41 55.96660 -3.79489 14500 ft 324 kts 255°
2026-05-09 09:41 55.96078 -3.83508 15297 ft 337 kts 255°
2026-05-09 09:42 55.95485 -3.87594 16048 ft 347 kts 255°
2026-05-09 09:42 55.94860 -3.91888 16833 ft 359 kts 255°
2026-05-09 09:42 55.94070 -3.96189 17549 ft 363 kts 246°
2026-05-09 09:42 55.93019 -4.00172 18255 ft 361 kts 245°
2026-05-09 09:43 55.91920 -4.03953 18849 ft 360 kts 237°
2026-05-09 09:43 55.90131 -4.07129 19459 ft 362 kts 218°
2026-05-09 09:43 55.87991 -4.09147 20103 ft 363 kts 212°
2026-05-09 09:43 55.85837 -4.11536 20749 ft 370 kts 218°
2026-05-09 09:44 55.83674 -4.14225 21449 ft 379 kts 218°
2026-05-09 09:44 55.81281 -4.16341 22088 ft 397 kts 202°
2026-05-09 09:44 55.78513 -4.17332 22846 ft 408 kts 195°
2026-05-09 09:44 55.75614 -4.17839 23538 ft 424 kts 185°
2026-05-09 09:45 55.72641 -4.16802 24174 ft 447 kts 168°
2026-05-09 09:45 55.69770 -4.14319 24880 ft 461 kts 159°
2026-05-09 09:45 55.66882 -4.11838 25629 ft 459 kts 165°
2026-05-09 09:45 55.63905 -4.09684 26351 ft 459 kts 167°
2026-05-09 09:46 55.60912 -4.07635 27057 ft 462 kts 167°
2026-05-09 09:46 55.57906 -4.05580 27745 ft 464 kts 167°
2026-05-09 09:46 55.54886 -4.03510 28428 ft 466 kts 168°
2026-05-09 09:46 55.51862 -4.01438 29099 ft 467 kts 168°
2026-05-09 09:47 55.48828 -3.99362 29705 ft 465 kts 168°
2026-05-09 09:47 55.45780 -3.97281 30330 ft 464 kts 168°
2026-05-09 09:47 55.42741 -3.95208 30954 ft 460 kts 169°
2026-05-09 09:47 55.39756 -3.93178 31570 ft 458 kts 169°
2026-05-09 09:48 55.36759 -3.91143 32161 ft 458 kts 169°
2026-05-09 09:48 55.30710 -3.87047 32275 ft 456 kts 169°
2026-05-09 09:49 55.24762 -3.83031 32271 ft 455 kts 169°
2026-05-09 09:49 55.18869 -3.78125 32269 ft 466 kts 162°
2026-05-09 09:50 55.13135 -3.72618 32270 ft 467 kts 161°
2026-05-09 09:50 55.07361 -3.67119 32281 ft 466 kts 162°
2026-05-09 09:51 55.02627 -3.62628 32284 ft 466 kts 162°
2026-05-09 09:51 54.96863 -3.57175 32283 ft 467 kts 162°
2026-05-09 09:52 54.91110 -3.51755 32283 ft 466 kts 162°
2026-05-09 09:52 54.85538 -3.46526 32289 ft 467 kts 162°
2026-05-09 09:53 54.79804 -3.41159 32295 ft 466 kts 162°
2026-05-09 09:53 54.74021 -3.35765 32295 ft 466 kts 162°
2026-05-09 09:54 54.68176 -3.31020 32284 ft 459 kts 167°
2026-05-09 09:54 54.62271 -3.26602 32061 ft 460 kts 167°
2026-05-09 09:54 54.59313 -3.24387 31809 ft 460 kts 167°
2026-05-09 09:55 54.56317 -3.22145 31552 ft 459 kts 167°
2026-05-09 09:55 54.53378 -3.19949 31317 ft 460 kts 167°
2026-05-09 09:55 54.50370 -3.17704 31308 ft 459 kts 167°
2026-05-09 09:56 54.44412 -3.13272 31280 ft 461 kts 167°
2026-05-09 09:56 54.38411 -3.08820 31279 ft 462 kts 167°
2026-05-09 09:57 54.32481 -3.04435 31281 ft 461 kts 167°
2026-05-09 09:57 54.26569 -3.00080 31283 ft 462 kts 167°
2026-05-09 09:58 54.20655 -2.95737 31282 ft 462 kts 167°
2026-05-09 09:58 54.14677 -2.91363 31281 ft 461 kts 167°
2026-05-09 09:59 54.08695 -2.87001 31282 ft 462 kts 167°
2026-05-09 09:59 54.02742 -2.82674 31283 ft 462 kts 167°
2026-05-09 10:00 53.96769 -2.78342 31282 ft 461 kts 167°
2026-05-09 10:00 53.90794 -2.74019 31279 ft 461 kts 167°
2026-05-09 10:01 53.84852 -2.69733 31286 ft 462 kts 167°
2026-05-09 10:01 53.78915 -2.65463 31292 ft 462 kts 167°
2026-05-09 10:02 53.72984 -2.61217 31290 ft 461 kts 167°
2026-05-09 10:02 53.67044 -2.56980 31289 ft 461 kts 167°
2026-05-09 10:03 53.61133 -2.52776 31291 ft 462 kts 167°
2026-05-09 10:03 53.55188 -2.48555 31287 ft 462 kts 167°
2026-05-09 10:04 53.49226 -2.44336 31291 ft 461 kts 167°
2026-05-09 10:04 53.43295 -2.40152 31292 ft 461 kts 167°
2026-05-09 10:05 53.37361 -2.35979 31289 ft 461 kts 167°
2026-05-09 10:05 53.31421 -2.31813 31281 ft 460 kts 168°
2026-05-09 10:06 53.25500 -2.27676 31281 ft 461 kts 168°
2026-05-09 10:06 53.19539 -2.23526 31280 ft 461 kts 168°
2026-05-09 10:07 53.13639 -2.19432 31280 ft 461 kts 168°
2026-05-09 10:07 53.07708 -2.15323 31277 ft 460 kts 168°
2026-05-09 10:08 53.01724 -2.11190 31279 ft 461 kts 168°
2026-05-09 10:08 52.95772 -2.07090 31279 ft 461 kts 168°
2026-05-09 10:09 52.89880 -2.03046 31279 ft 461 kts 167°
2026-05-09 10:09 52.83934 -1.98974 31286 ft 461 kts 168°
2026-05-09 10:10 52.77978 -1.94908 31287 ft 461 kts 168°
2026-05-09 10:10 52.72027 -1.90856 31285 ft 460 kts 168°
2026-05-09 10:11 52.65975 -1.86765 31311 ft 481 kts 167°
2026-05-09 10:11 52.59645 -1.82482 31393 ft 502 kts 167°
2026-05-09 10:11 52.56388 -1.80284 31401 ft 514 kts 167°
2026-05-09 10:12 52.53012 -1.78009 31194 ft 527 kts 166°
2026-05-09 10:12 52.49637 -1.75736 30851 ft 531 kts 166°
2026-05-09 10:12 52.46188 -1.73413 30489 ft 533 kts 166°
2026-05-09 10:12 52.42719 -1.71088 30138 ft 534 kts 166°
2026-05-09 10:13 52.39279 -1.68793 29786 ft 535 kts 166°
2026-05-09 10:13 52.35772 -1.66761 29359 ft 525 kts 174°
2026-05-09 10:13 52.32216 -1.66129 28864 ft 510 kts 187°
2026-05-09 10:13 52.28714 -1.66934 28185 ft 499 kts 201°
2026-05-09 10:14 52.25374 -1.68485 27822 ft 500 kts 199°
2026-05-09 10:14 52.21862 -1.69542 27591 ft 505 kts 195°
2026-05-09 10:14 52.18374 -1.70330 27328 ft 507 kts 194°
2026-05-09 10:14 52.14888 -1.71101 27045 ft 508 kts 194°
2026-05-09 10:15 52.11358 -1.71893 26756 ft 509 kts 194°
2026-05-09 10:15 52.07849 -1.72686 26478 ft 510 kts 194°
2026-05-09 10:15 52.04318 -1.73437 26294 ft 513 kts 191°
2026-05-09 10:15 52.00693 -1.73091 26238 ft 525 kts 178°
2026-05-09 10:16 51.97088 -1.72720 26189 ft 514 kts 187°
2026-05-09 10:16 51.93458 -1.72885 26094 ft 515 kts 188°
2026-05-09 10:16 51.89911 -1.73219 26053 ft 511 kts 193°
2026-05-09 10:16 51.86363 -1.73948 26061 ft 512 kts 193°
2026-05-09 10:17 51.82858 -1.74663 26142 ft 511 kts 193°
2026-05-09 10:17 51.79289 -1.75388 26073 ft 501 kts 193°
2026-05-09 10:17 51.75895 -1.76065 25414 ft 488 kts 193°
2026-05-09 10:17 51.72526 -1.76739 24929 ft 483 kts 193°
2026-05-09 10:18 51.69150 -1.77431 24421 ft 482 kts 193°
2026-05-09 10:18 51.65838 -1.78123 23926 ft 481 kts 193°
2026-05-09 10:18 51.62504 -1.78826 23419 ft 478 kts 193°
2026-05-09 10:18 51.59228 -1.79531 22905 ft 475 kts 193°
2026-05-09 10:19 51.55930 -1.80253 22319 ft 473 kts 193°
2026-05-09 10:19 51.52704 -1.80971 21720 ft 469 kts 193°
2026-05-09 10:19 51.49453 -1.81710 21126 ft 465 kts 193°
2026-05-09 10:19 51.46259 -1.82449 20537 ft 462 kts 193°
2026-05-09 10:20 51.43031 -1.83209 19935 ft 459 kts 193°
2026-05-09 10:20 51.39870 -1.83966 19346 ft 456 kts 193°
2026-05-09 10:20 51.36734 -1.84732 18760 ft 453 kts 193°
2026-05-09 10:20 51.33593 -1.85513 18155 ft 450 kts 193°
2026-05-09 10:21 51.30495 -1.86299 17457 ft 447 kts 193°
2026-05-09 10:21 51.27384 -1.87089 16725 ft 444 kts 192°
2026-05-09 10:21 51.24295 -1.87742 16006 ft 440 kts 191°
2026-05-09 10:21 51.21249 -1.88392 15298 ft 436 kts 191°
2026-05-09 10:22 51.18692 -1.88951 14612 ft 434 kts 191°
2026-05-09 10:22 51.15763 -1.89603 13511 ft 406 kts 191°
2026-05-09 10:22 51.13061 -1.90222 12353 ft 381 kts 191°
2026-05-09 10:22 51.10502 -1.90728 11416 ft 358 kts 189°
2026-05-09 10:23 51.08088 -1.91151 10495 ft 342 kts 189°
2026-05-09 10:23 51.05687 -1.91565 9738 ft 343 kts 189°
2026-05-09 10:23 51.03302 -1.91987 8986 ft 347 kts 189°
2026-05-09 10:23 51.00863 -1.92437 8232 ft 350 kts 189°
2026-05-09 10:24 50.98416 -1.92914 7481 ft 352 kts 189°
2026-05-09 10:24 50.96015 -1.93406 6629 ft 335 kts 189°
2026-05-09 10:24 50.93734 -1.93904 5772 ft 324 kts 189°
2026-05-09 10:24 50.91537 -1.94415 4933 ft 315 kts 188°
2026-05-09 10:25 50.89388 -1.94829 4117 ft 307 kts 185°
2026-05-09 10:25 50.87282 -1.95122 3608 ft 290 kts 184°
2026-05-09 10:25 50.85699 -1.95345 3350 ft 274 kts 184°
2026-05-09 10:25 50.83824 -1.95619 2983 ft 260 kts 184°
2026-05-09 10:26 50.82087 -1.95887 2741 ft 240 kts 184°
2026-05-09 10:26 50.80455 -1.96151 2401 ft 226 kts 184°
2026-05-09 10:26 50.78966 -1.95908 1923 ft 212 kts 155°
2026-05-09 10:26 50.77893 -1.94566 1535 ft 182 kts 123°
2026-05-09 10:27 50.77222 -1.93076 1425 ft 155 kts 120°
2026-05-09 10:27 50.76725 -1.91703 1247 ft 138 kts 98°
2026-05-09 10:27 50.76904 -1.90220 918 ft 142 kts 67°
2026-05-09 10:27 50.77238 -1.88795 692 ft 137 kts 72°
2026-05-09 10:28 50.77496 -1.87319 379 ft 138 kts 73°
2026-05-09 10:28 50.77737 -1.85867 155 ft 134 kts 74°
2026-05-09 10:28 50.77965 -1.84502 41 ft 115 kts 75°
2026-05-09 10:28 50.78120 -1.83572 37 ft 57 kts 77°
2026-05-09 10:29 50.78196 -1.83120 41 ft 25 kts 76°
2026-05-09 10:29 50.78142 -1.83068 40 ft 6 kts 214°
2026-05-09 10:29 50.78081 -1.83192 40 ft 22 kts 236°
2026-05-09 10:29 50.78003 -1.83415 39 ft 21 kts 236°
2026-05-09 10:30 50.77871 -1.83479 38 ft 15 kts 170°
2026-05-09 10:30 50.77799 -1.83468 37 ft 1 kts 198°
2026-05-09 10:30 50.77781 -1.83495 37 ft 8 kts 237°
2026-05-09 10:30 50.77775 -1.83541 37 ft 0 kts 265°